Home   Weather   Lucerne   Past weeks

Flag for Switzerland Past Weather in Lucerne, Lucerne, Switzerland — Yesterday and Last 2 Weeks

Now
27 °F

Chilly.


Feels Like: 27 °F
Forecast: 36 / 57 °F
Wind: 1 mph from Southwest

Location: Giswil

Current Time: Feb 26, 2017 at 6:48:07 am

Latest Report: Feb 26, 2017 at 6:00 am


Visibility: N/A

Pressure: 30.19 "Hg

Humidity: 99%

Dew Point: 27 °F

Location of LucerneLocation

Past Weather in Lucerne — Graph

°F

Lucerne Temperature Yesterday

Maximum temperature yesterday: 46 °F (at 4:00 pm)
Minimum temperature yesterday: 30 °F (at 11:00 pm)
Average temperature yesterday: 37 °F

High & Low Weather Summary for the Past Weeks

 TemperatureHumidityPressure
High69 °F (Feb 23, 3:00 pm)100% (Feb 11, 8:00 am)30.68 "Hg (Feb 11, 8:00 am)
Low22 °F (Feb 19, 7:00 am)16% (Feb 23, 8:00 pm)29.59 "Hg (Feb 23, 5:00 pm)
Average37 °F90%30.28 "Hg
* Reported Feb 11 5:00 am — Feb 26 5:00 am, Lucerne, Weather by CustomWeather, © 2017

Note: Actual official high and low records may vary slightly from our data, if they occured in-between our weather recording intervals... More about our weather records

Advertising

Lucerne Weather History for the Previous 24 Hours

Scroll right to see more
 ConditionsComfort  
Time TempWeatherWind HumidityBarometerVisibility
5:00 am
Sun, Feb 26
28 °FChilly.2 mph99%30.21 "HgN/A
4:00 am28 °FChilly.No wind99%30.20 "HgN/A
3:00 am28 °FChilly.1 mph99%30.20 "HgN/A
2:00 am30 °FChilly.3 mph100%30.19 "HgN/A
1:00 am28 °FChilly.No wind99%30.20 "HgN/A
12:00 am30 °FChilly.1 mph99%30.22 "HgN/A
11:00 pm
Sat, Feb 25
30 °FChilly.3 mph100%30.22 "HgN/A
10:00 pm31 °FChilly.No wind100%30.21 "HgN/A
9:00 pm31 °FChilly.2 mph99%30.22 "HgN/A
8:00 pm34 °FChilly.2 mph98%30.21 "HgN/A
7:00 pm35 °FChilly.2 mph93%30.21 "HgN/A
6:00 pm42 °FQuite cool.3 mph74%30.18 "HgN/A
5:00 pm45 °FCool.2 mph64%30.16 "HgN/A
4:00 pm46 °FCool.2 mph55%30.14 "HgN/A
3:00 pm46 °FCool.2 mph57%30.14 "HgN/A
2:00 pm44 °FQuite cool.2 mph60%30.18 "HgN/A
1:00 pm43 °FQuite cool.3 mph61%30.21 "HgN/A
12:00 pm42 °FQuite cool.2 mph65%30.24 "HgN/A
11:00 am39 °FChilly.3 mph75%30.24 "HgN/A
10:00 am37 °FChilly.No wind87%30.22 "HgN/A
9:00 am32 °FChilly.2 mph99%30.23 "HgN/A
8:00 am32 °FChilly.No wind99%30.24 "HgN/A
7:00 am33 °FChilly.No wind99%30.24 "HgN/A
6:00 am36 °FChilly.5 mph86%30.22 "HgN/A
Weather by CustomWeather, © 2017

See weather overviewHow to use our weather pages